Stations météo

réclame
Mon MeteoGroup
Chateau Chinon, France (7270): Température de l'air & dewpoint: 14.02.2019 15:00:00 - 20.02.2019 15:00:00 (CET)Chateau Chinon, France (7270): Vitesse du vent & gusts: 14.02.2019 15:00:00 - 20.02.2019 15:00:00 (CET)Chateau Chinon, France (7270): Direction du vent: 14.02.2019 15:00:00 - 20.02.2019 15:00:00 (CET)Chateau Chinon, France (7270): Quantités de précipitations: 14.02.2019 15:00:00 - 20.02.2019 15:00:00 (CET)
Date & Time tt [°C] td [°C] ff [km/h] ff [knt] fx [km/h] fx [knt] dd rr [mm]
20.02.2019 15:00:00 - - - - - - - -
20.02.2019 14:00:00 - - - - - - - -
20.02.2019 13:00:00 11,6 4,6 4 2 13 7 W -
20.02.2019 12:00:00 9,9 4,9 4 2 13 7 W 0,0
20.02.2019 11:00:00 8,9 3,9 4 2 16 9 SW 0,0
20.02.2019 10:00:00 8,4 3,0 4 2 11 6 SSE 0,0
20.02.2019 09:00:00 6,4 2,8 4 2 11 6 SE 0,0
20.02.2019 08:00:00 5,5 2,7 8 4 15 8 SSE 0,0
20.02.2019 07:00:00 5,2 3,4 8 4 13 7 SSE -
20.02.2019 06:00:00 5,0 3,5 8 4 15 8 SE 0,0
20.02.2019 05:00:00 5,3 3,8 8 4 16 9 SE 0,0
20.02.2019 04:00:00 5,2 4,0 8 4 13 7 SE 0,0
20.02.2019 03:00:00 5,2 4,0 8 4 13 7 SE 0,0
20.02.2019 02:00:00 5,2 4,2 8 4 18 10 ESE 0,0
20.02.2019 01:00:00 5,4 4,2 8 4 15 8 ESE -
20.02.2019 00:00:00 5,3 4,4 5 3 22 12 ESE 0,0
19.02.2019 23:00:00 5,0 4,1 5 3 11 6 ESE 0,0
19.02.2019 22:00:00 5,2 4,0 4 2 11 6 ESE 0,0
19.02.2019 21:00:00 5,7 3,5 4 2 8 4 ESE 0,0
19.02.2019 20:00:00 6,0 3,8 4 2 8 4 SE 0,0
19.02.2019 19:00:00 7,0 3,8 2 1 4 2 ESE -
19.02.2019 18:00:00 7,7 3,5 0 0 9 5 N 0,0
19.02.2019 17:00:00 9,3 4,1 4 2 11 6 NW 0,0
19.02.2019 16:00:00 9,8 4,0 4 2 13 7 NW 0,0
19.02.2019 15:00:00 9,5 4,3 4 2 15 8 NW 0,0
19.02.2019 14:00:00 9,3 4,7 4 2 16 9 WNW 0,0
19.02.2019 13:00:00 8,8 4,4 4 2 13 7 W -
19.02.2019 12:00:00 8,2 4,2 4 2 9 5 WNW 0,0
19.02.2019 11:00:00 7,1 4,4 4 2 13 7 W 0,0
19.02.2019 10:00:00 7,0 4,6 2 1 16 9 W 0,0
19.02.2019 09:00:00 5,6 4,1 4 2 16 9 W 0,0
19.02.2019 08:00:00 5,8 4,3 4 2 21 11 W 0,0
19.02.2019 07:00:00 4,9 2,9 4 2 18 10 W -
19.02.2019 06:00:00 5,3 2,6 4 2 18 10 W 0,0
19.02.2019 05:00:00 5,3 1,8 5 3 22 12 W 0,0
19.02.2019 04:00:00 5,8 1,5 5 3 29 16 W 0,0
19.02.2019 03:00:00 6,0 1,3 8 4 35 19 W 0,0
19.02.2019 02:00:00 6,8 1,3 9 5 46 25 WSW 0,0
19.02.2019 01:00:00 7,2 1,3 11 6 42 23 WSW -
19.02.2019 00:00:00 7,5 1,1 15 8 39 21 SW 0,0
18.02.2019 23:00:00 8,6 1,0 21 11 41 22 SSW 0,0
18.02.2019 22:00:00 9,0 0,4 9 5 24 13 SSW 0,0
18.02.2019 21:00:00 7,6 0,3 9 5 18 10 SE 0,0
18.02.2019 20:00:00 7,6 0,1 9 5 22 12 SE 0,0
18.02.2019 19:00:00 8,3 -0,5 8 4 21 11 SE -
18.02.2019 18:00:00 9,7 -0,8 8 4 22 12 SSE 0,0
18.02.2019 17:00:00 11,8 -1,4 5 3 24 13 S 0,0
18.02.2019 16:00:00 12,8 -1,9 11 6 24 13 SSW 0,0
18.02.2019 15:00:00 13,1 -2,0 8 4 26 14 SSW 0,0
18.02.2019 14:00:00 12,0 -1,2 11 6 28 15 SSW 0,0
18.02.2019 13:00:00 12,4 -1,9 4 2 28 15 SSW -
18.02.2019 12:00:00 10,3 -1,8 9 5 31 17 SSW 0,0
18.02.2019 11:00:00 8,8 -3,1 13 7 34 18 SSW 0,0
18.02.2019 10:00:00 8,0 -3,2 5 3 21 11 S 0,0
18.02.2019 09:00:00 6,3 -2,3 8 4 18 10 SSE 0,0
18.02.2019 08:00:00 4,8 -3,2 4 2 18 10 SSE 0,0
18.02.2019 07:00:00 5,0 -3,1 9 5 21 11 SE -
18.02.2019 06:00:00 5,5 -3,3 9 5 21 11 SE 0,0
18.02.2019 05:00:00 5,3 -2,8 8 4 24 13 SE 0,0
18.02.2019 04:00:00 5,9 -3,2 9 5 24 13 SE 0,0
18.02.2019 03:00:00 6,7 -4,4 8 4 24 13 SE 0,0
18.02.2019 02:00:00 8,2 -6,0 8 4 34 18 SE 0,0
18.02.2019 01:00:00 9,3 -5,8 9 5 34 18 SSE -
18.02.2019 00:00:00 10,1 -4,7 8 4 26 14 S 0,0
17.02.2019 23:00:00 9,7 -4,3 9 5 22 12 SSE 0,0
17.02.2019 22:00:00 10,5 -3,6 11 6 29 16 SSE 0,0
17.02.2019 21:00:00 9,2 -1,3 8 4 21 11 ESE 0,0
17.02.2019 20:00:00 10,0 -1,4 5 3 11 6 E 0,0
17.02.2019 19:00:00 10,5 -4,0 4 2 9 5 ESE -
17.02.2019 18:00:00 13,6 -5,1 4 2 18 10 SSW 0,0
17.02.2019 17:00:00 15,5 -5,0 4 2 16 9 WSW 0,0
17.02.2019 16:00:00 17,1 -7,4 8 4 18 10 SSW 0,0
17.02.2019 15:00:00 17,4 -9,5 5 3 18 10 SSW 0,0
17.02.2019 14:00:00 17,1 -8,2 4 2 28 15 WSW 0,0
17.02.2019 13:00:00 15,7 -9,3 11 6 35 19 SW -
17.02.2019 12:00:00 14,9 -11,6 13 7 42 23 SW 0,0
17.02.2019 11:00:00 13,3 -12,0 16 9 39 21 SSW 0,0
17.02.2019 10:00:00 12,3 -12,1 11 6 42 23 SSW 0,0
17.02.2019 09:00:00 11,0 -12,5 8 4 34 18 S 0,0
17.02.2019 08:00:00 10,1 -12,5 9 5 35 19 S 0,0
17.02.2019 07:00:00 9,8 -12,8 5 3 34 18 S -
17.02.2019 06:00:00 10,5 -13,6 8 4 34 18 S 0,0
17.02.2019 05:00:00 9,9 -12,7 8 4 28 15 SSE 0,0
17.02.2019 04:00:00 10,6 -11,5 8 4 22 12 S 0,0
17.02.2019 03:00:00 10,3 -8,9 4 2 21 11 SSE 0,0
17.02.2019 02:00:00 10,6 -7,7 8 4 22 12 SSE 0,0
17.02.2019 01:00:00 12,1 -7,4 5 3 29 16 S -
17.02.2019 00:00:00 12,6 -6,4 4 2 21 11 S 0,0
16.02.2019 23:00:00 10,4 -11,0 9 5 22 12 SE 0,0
16.02.2019 22:00:00 10,1 -8,6 9 5 22 12 SE 0,0
16.02.2019 21:00:00 9,7 -9,4 9 5 18 10 SE 0,0
16.02.2019 20:00:00 10,2 -11,8 8 4 22 12 SSE 0,0
16.02.2019 19:00:00 10,5 -5,5 8 4 15 8 ESE -
16.02.2019 18:00:00 12,3 -8,8 4 2 8 4 SSE 0,0
16.02.2019 17:00:00 14,3 -7,2 4 2 9 5 NW 0,0
16.02.2019 16:00:00 16,7 -7,8 4 2 13 7 WNW 0,0
16.02.2019 15:00:00 15,7 -3,3 4 2 16 9 W 0,0
16.02.2019 14:00:00 14,6 -0,7 5 3 13 7 W 0,0
16.02.2019 13:00:00 13,6 -0,1 5 3 13 7 W -
16.02.2019 12:00:00 13,6 -2,4 4 2 11 6 WSW 0,0
16.02.2019 11:00:00 12,6 -5,9 4 2 11 6 SSW 0,0
16.02.2019 10:00:00 13,6 -4,6 2 1 9 5 SE 0,0
16.02.2019 09:00:00 10,8 -6,6 2 1 11 6 SSW 0,0
16.02.2019 08:00:00 9,0 -9,5 8 4 11 6 SSE 0,0
16.02.2019 07:00:00 9,7 -9,9 4 2 11 6 S -
16.02.2019 06:00:00 9,9 -7,8 5 3 16 9 S 0,0
16.02.2019 05:00:00 10,3 -8,9 8 4 15 8 SSW 0,0
16.02.2019 04:00:00 10,1 -7,6 8 4 18 10 SSE 0,0
16.02.2019 03:00:00 10,8 -6,1 8 4 22 12 SSE 0,0
16.02.2019 02:00:00 12,5 -5,5 8 4 24 13 S 0,0
16.02.2019 01:00:00 13,5 -4,7 9 5 22 12 SSW -
16.02.2019 00:00:00 12,6 -5,5 4 2 18 10 S 0,0
15.02.2019 23:00:00 12,9 -6,2 9 5 21 11 SSE 0,0
15.02.2019 22:00:00 11,6 -6,8 9 5 18 10 SSE 0,0
15.02.2019 21:00:00 11,3 -5,7 9 5 16 9 SE 0,0
15.02.2019 20:00:00 11,0 -4,3 8 4 15 8 SE 0,0
15.02.2019 19:00:00 11,3 -2,2 5 3 16 9 ESE -
15.02.2019 18:00:00 12,1 -0,4 5 3 16 9 ESE 0,0
15.02.2019 17:00:00 15,2 -1,8 5 3 13 7 ESE 0,0
15.02.2019 16:00:00 19,4 -1,7 4 2 9 5 SSE 0,0
15.02.2019 15:00:00 19,7 -2,0 4 2 11 6 SSE 0,0
15.02.2019 14:00:00 18,6 0,2 4 2 13 7 SW 0,0
15.02.2019 13:00:00 18,0 -4,1 5 3 13 7 SE -
15.02.2019 12:00:00 15,8 -3,2 4 2 15 8 E 0,0
15.02.2019 11:00:00 13,2 -3,6 8 4 16 9 E 0,0
15.02.2019 10:00:00 12,3 -6,7 5 3 15 8 E 0,0
15.02.2019 09:00:00 9,6 -6,7 8 4 21 11 ESE 0,0
15.02.2019 08:00:00 8,9 -8,2 9 5 18 10 ESE 0,0
15.02.2019 07:00:00 8,2 -6,8 9 5 24 13 ESE -
15.02.2019 06:00:00 7,4 -5,3 8 4 22 12 ESE 0,0
15.02.2019 05:00:00 8,9 -6,5 9 5 22 12 ESE 0,0
15.02.2019 04:00:00 7,8 -5,3 8 4 18 10 ESE 0,0
15.02.2019 03:00:00 6,8 -3,5 8 4 22 12 ESE 0,0
15.02.2019 02:00:00 6,9 -3,4 8 4 16 9 ESE 0,0
15.02.2019 01:00:00 7,0 -3,8 8 4 21 11 E -
15.02.2019 00:00:00 7,1 -2,9 9 5 28 15 E 0,0
14.02.2019 23:00:00 7,3 -2,2 9 5 34 18 E 0,0
14.02.2019 22:00:00 6,9 -1,3 9 5 29 16 E 0,0
14.02.2019 21:00:00 6,5 -1,4 8 4 24 13 E 0,0
14.02.2019 20:00:00 6,9 -1,8 8 4 26 14 E 0,0
14.02.2019 19:00:00 7,8 -1,2 11 6 31 17 E -
14.02.2019 18:00:00 8,6 -1,3 8 4 22 12 E 0,0
14.02.2019 17:00:00 11,3 -1,2 4 2 18 10 ESE 0,0
14.02.2019 16:00:00 14,0 -1,6 4 2 16 9 ESE 0,0
14.02.2019 15:00:00 15,1 -2,4 4 2 21 11 E 0,0

tt = Température de l'air
td = dewpoint
ff = Vitesse du vent
fx = gusts
dd = Direction du vent
rr = Quantités de précipitations

stations d'obs. à proximité